Terminal Aerodrome Forecast
Issued by NWS Nashville, TN

Home | Current Version | Previous Version | Text Only | Print | Product List | Glossary On
Versions: 1 2 3 4 5 6 7 8 9 10 11 12 13 14 15 16 17 18 19 20 21
000
FTUS44 KOHX 051733
TAFBNA
TAF
KBNA 051733Z 0518/0618 35018G23KT P6SM SCT035 BKN045
     FM060000 33009KT P6SM BKN050
     FM060200 33009KT P6SM SKC
     FM061600 35010G17KT P6SM SCT250=

USA.gov is the U.S. government's official web portal to all federal, state and local government web resources and services.